• In Latvia
  • List of Countries
  • For 7 days
  • Water Temperature
  • Satellite Maps
  • Weather Map
  • Weather Widgets
  • user-avatar
    Login

    Hourly Weather Prutz

    Today, 23 August, Wednesday

    Time Temperature Precipitation Wind Pressure Humidity
    00:00 +10°C° 0 mm 1 mps 636 mmHg 91%
    01:00 +10°C° 0 mm 1 mps 635 mmHg 89%
    02:00 +9°C° 0 mm 1 mps 635 mmHg 86%
    03:00 +9°C° 0 mm 1 mps 635 mmHg 84%
    04:00 +9°C° 0 mm 1 mps 635 mmHg 81%
    05:00 +10°C° 0 mm 1 mps 635 mmHg 77%
    06:00 +12°C° 0 mm 1 mps 636 mmHg 73%
    07:00 +13°C° 0 mm 1 mps 637 mmHg 70%
    08:00 +15°C° 0 mm 1 mps 637 mmHg 61%
    09:00 +19°C° 0 mm 1 mps 638 mmHg 52%
    10:00 +20°C° 0 mm 2 mps 639 mmHg 43%
    11:00 +21°C° 0.1 mm 2 mps 639 mmHg 42%
    12:00 +21°C° 0.1 mm 2 mps 639 mmHg 41%
    13:00 +22°C° 0.1 mm 3 mps 639 mmHg 40%
    14:00 +22°C° 0.2 mm 3 mps 639 mmHg 41%
    15:00 +21°C° 0.2 mm 3 mps 639 mmHg 42%
    16:00 +21°C° 0.2 mm 3 mps 639 mmHg 43%
    17:00 +19°C° 0.1 mm 2 mps 638 mmHg 52%
    18:00 +17°C° 0.1 mm 2 mps 637 mmHg 62%
    19:00 +15°C° 0.1 mm 1 mps 637 mmHg 72%
    20:00 +14°C° 0 mm 1 mps 637 mmHg 73%
    21:00 +13°C° 0 mm 1 mps 637 mmHg 74%
    22:00 +12°C° 0 mm 1 mps 637 mmHg 75%
    23:00 +12°C° 0 mm 1 mps 637 mmHg 74%

    Tomorrow, 24 August, Thursday

    Time Temperature Precipitation Wind Pressure Humidity
    00:00 +12°C° 0 mm 1 mps 637 mmHg 72%
    01:00 +11°C° 0 mm 1 mps 637 mmHg 70%
    02:00 +11°C° 0 mm 1 mps 637 mmHg 68%
    03:00 +11°C° 0 mm 1 mps 636 mmHg 67%
    04:00 +11°C° 0 mm 1 mps 636 mmHg 66%
    05:00 +12°C° 0 mm 1 mps 637 mmHg 64%
    06:00 +14°C° 0 mm 1 mps 637 mmHg 62%
    07:00 +15°C° 0 mm 1 mps 638 mmHg 60%
    08:00 +18°C° 0 mm 1 mps 639 mmHg 53%
    09:00 +21°C° 0 mm 1 mps 640 mmHg 46%
    10:00 +23°C° 0 mm 1 mps 640 mmHg 38%
    11:00 +24°C° 0 mm 1 mps 640 mmHg 37%
    12:00 +24°C° 0 mm 1 mps 641 mmHg 36%
    13:00 +25°C° 0 mm 1 mps 641 mmHg 35%
    14:00 +24°C° 0.2 mm 1 mps 640 mmHg 39%
    15:00 +24°C° 0.2 mm 1 mps 640 mmHg 43%
    16:00 +23°C° 0.2 mm 2 mps 640 mmHg 48%
    17:00 +21°C° 0.9 mm 1 mps 639 mmHg 59%
    18:00 +19°C° 0.9 mm 1 mps 638 mmHg 69%
    19:00 +15°C° 0.9 mm 0 mps 638 mmHg 80%
    20:00 +15°C° 0.2 mm 1 mps 638 mmHg 81%
    21:00 +14°C° 0.2 mm 1 mps 638 mmHg 82%
    22:00 +13°C° 0.2 mm 2 mps 638 mmHg 83%
    23:00 +13°C° 0 mm 2 mps 638 mmHg 82%

    Day after tomorrow, 25 August, Friday

    Time Temperature Precipitation Wind Pressure Humidity
    00:00 +13°C° 0 mm 2 mps 638 mmHg 82%
    01:00 +13°C° 0 mm 2 mps 638 mmHg 82%
    02:00 +13°C° 0 mm 2 mps 638 mmHg 81%
    03:00 +12°C° 0 mm 2 mps 638 mmHg 81%
    04:00 +12°C° 0 mm 2 mps 637 mmHg 80%
    05:00 +13°C° 0 mm 2 mps 638 mmHg 78%
    06:00 +14°C° 0 mm 2 mps 638 mmHg 75%
    07:00 +15°C° 0 mm 1 mps 639 mmHg 72%
    08:00 +19°C° 0 mm 1 mps 639 mmHg 63%
    09:00 +21°C° 0 mm 1 mps 640 mmHg 53%
    10:00 +24°C° 0 mm 1 mps 641 mmHg 44%
    11:00 +24°C° 0 mm 1 mps 641 mmHg 41%
    12:00 +25°C° 0 mm 1 mps 641 mmHg 39%
    13:00 +26°C° 0 mm 1 mps 641 mmHg 37%
    14:00 +25°C° 0.1 mm 1 mps 641 mmHg 40%
    15:00 +25°C° 0.1 mm 1 mps 640 mmHg 43%
    16:00 +24°C° 0.1 mm 2 mps 640 mmHg 46%
    17:00 +22°C° 0.4 mm 1 mps 640 mmHg 57%
    18:00 +20°C° 0.4 mm 1 mps 639 mmHg 68%
    19:00 +16°C° 0.4 mm 0 mps 638 mmHg 79%
    20:00 +18°C° 0.3 mm 1 mps 638 mmHg 79%
    21:00 +16°C° 0.3 mm 1 mps 639 mmHg 79%
    22:00 +16°C° 0.3 mm 2 mps 639 mmHg 78%
    23:00 +16°C° 0.1 mm 2 mps 639 mmHg 78%

    26 August, Saturday

    Time Temperature Precipitation Wind Pressure Humidity
    00:00 +15°C° 0.1 mm 2 mps 638 mmHg 77%
    01:00 +15°C° 0.1 mm 2 mps 638 mmHg 76%
    02:00 +15°C° 0 mm 2 mps 638 mmHg 76%
    03:00 +15°C° 0 mm 2 mps 638 mmHg 76%
    04:00 +14°C° 0 mm 1 mps 637 mmHg 75%
    05:00 +15°C° 0 mm 1 mps 638 mmHg 74%
    06:00 +16°C° 0 mm 1 mps 638 mmHg 72%
    07:00 +18°C° 0 mm 1 mps 639 mmHg 70%
    08:00 +20°C° 0.1 mm 1 mps 639 mmHg 62%
    09:00 +22°C° 0.1 mm 1 mps 640 mmHg 54%
    10:00 +24°C° 0.1 mm 1 mps 640 mmHg 45%
    11:00 +25°C° 0.2 mm 1 mps 640 mmHg 43%
    12:00 +26°C° 0.2 mm 1 mps 640 mmHg 41%
    13:00 +26°C° 0.2 mm 1 mps 640 mmHg 39%
    14:00 +26°C° 0.2 mm 1 mps 640 mmHg 42%
    15:00 +25°C° 0.2 mm 1 mps 640 mmHg 44%
    16:00 +25°C° 0.2 mm 1 mps 639 mmHg 47%
    17:00 +23°C° 0.4 mm 1 mps 639 mmHg 57%
    18:00 +21°C° 0.4 mm 1 mps 638 mmHg 67%
    19:00 +17°C° 0.4 mm 0 mps 638 mmHg 77%
    20:00 +18°C° 0.5 mm 1 mps 638 mmHg 77%
    21:00 +18°C° 0.5 mm 1 mps 638 mmHg 77%
    22:00 +16°C° 0.5 mm 1 mps 638 mmHg 78%
    23:00 +16°C° 0.1 mm 1 mps 637 mmHg 77%

    27 August, Sunday

    Time Temperature Precipitation Wind Pressure Humidity
    00:00 +15°C° 0.1 mm 2 mps 637 mmHg 77%
    01:00 +15°C° 0.1 mm 2 mps 637 mmHg 77%
    02:00 +14°C° 0 mm 1 mps 637 mmHg 76%
    03:00 +14°C° 0 mm 1 mps 636 mmHg 75%
    04:00 +14°C° 0 mm 1 mps 636 mmHg 75%
    05:00 +15°C° 0.2 mm 1 mps 637 mmHg 73%
    06:00 +16°C° 0.2 mm 1 mps 637 mmHg 72%
    07:00 +16°C° 0.2 mm 1 mps 637 mmHg 70%
    08:00 +19°C° 0.2 mm 1 mps 638 mmHg 66%
    09:00 +20°C° 0.2 mm 1 mps 638 mmHg 61%
    10:00 +21°C° 0.2 mm 1 mps 639 mmHg 57%
    11:00 +22°C° 0.4 mm 1 mps 638 mmHg 58%
    12:00 +22°C° 0.4 mm 1 mps 638 mmHg 60%
    13:00 +22°C° 0.4 mm 1 mps 638 mmHg 61%
    14:00 +22°C° 0.6 mm 1 mps 638 mmHg 61%
    15:00 +22°C° 0.6 mm 1 mps 638 mmHg 60%
    16:00 +22°C° 0.6 mm 1 mps 638 mmHg 60%
    17:00 +21°C° 0.4 mm 1 mps 637 mmHg 67%
    18:00 +19°C° 0.4 mm 1 mps 637 mmHg 74%
    19:00 +16°C° 0.4 mm 1 mps 636 mmHg 82%
    20:00 +15°C° 0.1 mm 1 mps 636 mmHg 83%
    21:00 +15°C° 0.1 mm 1 mps 636 mmHg 83%
    22:00 +14°C° 0.1 mm 1 mps 636 mmHg 84%
    23:00 +14°C° 0 mm 1 mps 636 mmHg 83%

    28 August, Monday

    Time Temperature Precipitation Wind Pressure Humidity
    00:00 +14°C° 0 mm 1 mps 636 mmHg 81%
    01:00 +14°C° 0 mm 1 mps 636 mmHg 80%
    02:00 +13°C° 0 mm 1 mps 636 mmHg 78%
    03:00 +13°C° 0 mm 1 mps 636 mmHg 76%
    04:00 +13°C° 0 mm 1 mps 636 mmHg 74%
    05:00 +14°C° 0.3 mm 1 mps 636 mmHg 74%
    06:00 +15°C° 0.3 mm 1 mps 636 mmHg 75%
    07:00 +15°C° 0.3 mm 1 mps 637 mmHg 75%
    08:00 +18°C° 0.1 mm 1 mps 638 mmHg 66%
    09:00 +21°C° 0.1 mm 1 mps 638 mmHg 56%
    10:00 +23°C° 0.1 mm 2 mps 639 mmHg 47%
    11:00 +23°C° 0.1 mm 2 mps 639 mmHg 47%
    12:00 +24°C° 0.1 mm 2 mps 639 mmHg 46%
    13:00 +24°C° 0.1 mm 2 mps 639 mmHg 45%
    14:00 +24°C° 0.2 mm 2 mps 639 mmHg 47%
    15:00 +24°C° 0.2 mm 2 mps 639 mmHg 48%
    16:00 +23°C° 0.2 mm 2 mps 639 mmHg 50%
    17:00 +20°C° 0.2 mm 2 mps 638 mmHg 60%
    18:00 +18°C° 0.2 mm 2 mps 638 mmHg 71%
    19:00 +16°C° 0.2 mm 1 mps 637 mmHg 81%
    20:00 +15°C° 0 mm 1 mps 637 mmHg 84%
    21:00 +14°C° 0 mm 1 mps 637 mmHg 86%
    22:00 +13°C° 0 mm 1 mps 637 mmHg 89%
    23:00 +13°C° 0 mm 1 mps 637 mmHg 88%
    Show more